Zurück zum Katalog

PRAETORIAN SDA_508

AktivMilitärPO
NORAD 100066·PAYLOAD·🇺🇸 United States

Gestartet Jul 16, 2026 von Vandenberg Space Force Base

Loading…

Nächste Überflüge (nächste 24 Stunden)

TLE

AktuellSource: Space-Track

Epoche: Sep 13, 2026, 23:17 UTC

1 A0066U 26163H   26256.97082932  .00000137  00000-0  10923-3 0  9990
2 A0066  81.4754 255.9071 0014604  57.2102 303.0461 13.85528362  8192

Verfolge PRAETORIAN SDA_508 in Echtzeit mit AllMySat

Download on the App Store